Location: Arcueil
(48.7999°N, 2.3326°E)
Time: 19:57:36
(UTC+00:00)

JY1SAT - Pass Details

Date: 21 June 2024
Orbit: 535 x 549 km, 97.5° (Epoch: 18 July)

Event Time Altitude Azimuth Distance (km) Brightness Sun altitude
Exits shadow 21:11:57 - 187° (S) 2,289 ? -9.3°
Reaches altitude 10° 21:13:09 10° 192° (SSW) 1,819 ? -9.5°
Maximum altitude 21:16:51 39° 262° (W) 839 ? -9.8°
Drops below altitude 10° 21:20:36 10° 333° (NNW) 1,843 ? -10.2°
Sets 21:22:52 0° 341° (NNW) 2,744 ? -10.4°
